Terug naar catalogus

FREGAT DEB

LostUNKNOWN
NORAD 45892·DEBRIS·🇷🇺 Russia

Gelanceerd Jul 18, 2011 vanaf Baikonur Cosmodrome

Loading…

Volgende Passages (komende 24 uur)

TLE

VerouderdSource: Space-Track

Epoch: Jan 24, 2021, 22:50 UTC

1 45892U 11037DM  21024.95158270  .00185601  00000-0  10233+0 0  9995
2 45892  51.2600 263.7741 2082662  50.9992 325.8582 10.66725856 20825

Volg FREGAT DEB in realtime met AllMySat

Download on the App Store